Regional Weather Roundup
Issued by NWS

Home | Current Version | Previous Version | Text Only | Print | Product List | Glossary On
Versions: 1 2 3 4 5 6 7 8 9 10 11 12 13 14 15 16 17 18 19 20 21 22 23 24 25 26 27 28 29 30 31 32 33 34 35 36 37 38 39 40 41 42 43 44 45 46 47 48 49 50
000
ASUS42 KFFC 171710
RWRGA
WEATHER ROUNDUP FOR GEORGIA
NATIONAL WEATHER SERVICE PEACHTREE CITY GA
100 PM EDT THU JUN 17 2021

NOTE: "FAIR" INDICATES FEW OR NO CLOUDS BELOW 12,000 FEET WITH NO
SIGNIFICANT WEATHER AND/OR OBSTRUCTIONS TO VISIBILITY.

* = USE WITH CAUTION. THE STATIONS MARKED WITH AN ASTERISK MAY NOT
REPORT WEATHER SUCH AS PRECIPITATION, FOG, OR THUNDER AND ARE NOT
QUALITY CONTROLLED BY NWS.

THE REMARK "TC" DENOTES TEMPERATURE READING IN DEGREES CELSIUS.

GAZ001>058-171800-
NORTH GEORGIA

CITY           SKY/WX    TMP DP  RH WIND       PRES   REMARKS
ATLANTA        MOSUNNY   83  53  35 SE6       30.07F
ATHENS         SUNNY     86  52  30 MISG      30.07F
CHAMBLEE       SUNNY     84  55  36 VRB3      30.07F
PEACHTREE CITY SUNNY     84  53  34 VRB5      30.07S
ROME           SUNNY     85  57  38 SE5       30.07S
WEST ATLANTA   SUNNY     84  52  33 N6        30.06F
GAINESVILLE    SUNNY     80  51  36 MISG      30.11F
CARTERSVILLE   SUNNY     82  57  42 VRB3      30.08F


CITY           SKY/WX    TMP DP  RH WIND       PRES   REMARKS
DALTON*        SUNNY     82  52  34 W6        30.09F
LAWRENCEVILLE* SUNNY     84  55  36 E9        30.08F
MARIETTA       MOSUNNY   82  55  38 SE3       30.07F
KENNESAW*      SUNNY     83  56  39 VRB5      30.09S
CANTON*        MOSUNNY   82  50  32 NE3       30.11S
BLAIRSVILLE*   SUNNY     80  54  40 E6G18     30.12F
$$

GAZ059>098-102>109-171800-
CENTRAL GEORGIA

CITY           SKY/WX    TMP DP  RH WIND       PRES   REMARKS
AUGUSTA-BUSH   SUNNY     87  54  32 VRB5      30.03F
AUGUSTA-DANIEL SUNNY     85  52  32 CALM      30.05F
COLUMBUS       SUNNY     86  55  34 SW6       30.03F
MACON          PTSUNNY   90  57  32 VRB3      30.02F
ROBINS AFB     MOSUNNY   88  55  33 SW5       30.01F


CITY           SKY/WX    TMP DP  RH WIND       PRES   REMARKS
LAGRANGE*      SUNNY     85  51  31 CALM      30.06F
SYLVANIA*      SUNNY     88  61  40 E6        30.04F
MILLEDGEVILLE* SUNNY     86  63  45 CALM      30.04F
$$

GAZ099>101-110>166-171800-
SOUTH GEORGIA

CITY           SKY/WX    TMP DP  RH WIND       PRES   REMARKS
SAVANNAH       MOSUNNY   88  63  43 E8        30.02F
VALDOSTA       MOSUNNY   90  63  40 VRB7      30.01F HX  91
ALMA           SUNNY     89  59  36 VRB3      30.01F
ST SIMONS      MOSUNNY   84  73  69 E9        30.01F HX  90
FT STEWART     PTSUNNY   89  62  40 NE6       29.99F
ALBANY         MOSUNNY   94  61  33 NE12      30.00F HX  94
HUNTER AFB     MOSUNNY   89  64  43 CALM      29.99F HX  90
MOODY AFB      MOSUNNY   90  61  37 SE9       30.01S HX  90
BRUNSWICK      MOSUNNY   87  67  50 E12       30.01F


CITY           SKY/WX    TMP DP  RH WIND       PRES   REMARKS
BAINBRIDGE*    MOSUNNY   89  61  38 N6        30.01F
MOULTRIE*      MOSUNNY   90  55  31 CALM      30.02F
VIDALIA*       MOSUNNY   88  57  35 CALM      30.03F
WAYCROSS*      MOSUNNY   90  60  36 CALM      30.01F
DOUGLAS*       SUNNY     88  55  33 SE6       30.04S
$$



USA.gov is the U.S. government's official web portal to all federal, state and local government web resources and services.